EW5907 Weather Reports


time (UTC)temp
C
wind
direction
speed
KPH
gust
KPH
rain 1hr
cm
rain 24hr
cm
rain mn
cm
humidity
%
barometer
mb
20260507010956 6 312 0.0 0.0 0.00 1.55 1.55 98 1011.9
20260507010450 6 318 0.0 0.0 0.00 1.55 1.55 98 1011.8
20260507005947 6 297 0.0 0.0 0.00 1.55 1.55 98 1011.8
20260507005445 6 321 0.0 0.0 0.00 1.55 1.55 98 1011.6
20260507004941 6 312 0.0 0.0 0.00 1.55 1.55 98 1011.9
20260507004438 6 322 0.0 0.0 0.00 1.55 1.55 98 1011.6
20260507003936 6 319 0.0 0.0 0.00 1.55 1.55 98 1011.5
20260507003430 6 310 0.0 0.0 0.00 1.55 1.55 98 1011.7
20260507002926 6 321 0.0 0.0 0.00 1.55 1.55 98 1011.6
20260507002422 6 318 0.0 0.0 0.00 1.55 1.55 98 1011.5
20260507001920 6 329 0.0 0.0 0.00 1.55 1.55 98 1011.3
20260507001416 6 299 0.0 0.0 0.00 1.55 1.55 98 1011.2
20260507000913 6 328 0.0 0.0 0.00 1.55 1.55 98 1011.4
20260507000408 7 313 0.0 0.0 0.00 1.55 1.55 98 1011.0
20260506235905 7 314 0.0 0.0 0.00 1.55 1.55 98 1011.2
20260506235403 7 233 0.0 0.0 0.00 1.55 1.55 98 1010.7
20260506234857 7 320 0.0 0.0 0.00 1.55 1.55 98 1011.1
20260506234355 7 318 0.0 0.0 0.00 1.55 1.55 98 1010.8
20260506233853 7 8 0.0 0.0 0.00 1.55 1.55 98 1010.7
20260506233349 7 313 0.0 0.0 0.00 1.55 1.55 98 1010.8
20260506232846 7 319 0.0 0.0 0.00 1.55 1.55 98 1010.7
20260506232342 7 322 0.0 0.0 0.00 1.55 1.55 98 1010.6
20260506231838 7 319 0.0 0.0 0.00 1.55 1.55 98 1010.4
20260506231336 7 316 0.0 0.0 0.00 1.55 1.55 98 1010.1
20260506230833 6 318 0.0 0.0 0.00 1.55 1.55 98 1010.0
20260506230330 6 319 0.0 0.0 0.00 1.55 1.55 98 1010.2
20260506225826 7 1 0.0 0.0 0.00 1.55 1.55 98 1010.0
20260506225324 7 316 0.0 0.0 0.00 1.55 1.55 98 1010.1
20260506224821 7 331 0.0 0.0 0.00 1.55 1.55 98 1010.3
20260506224318 7 337 0.0 0.0 0.00 1.55 1.55 98 1010.4
20260506223814 7 345 0.0 0.0 0.00 1.55 1.55 98 1010.6
20260506223309 7 318 0.0 0.0 0.00 1.55 1.55 98 1010.8
20260506222807 7 334 0.0 0.0 0.00 1.55 1.55 98 1010.7
20260506222305 7 278 0.0 0.0 0.00 1.55 1.55 98 1010.6
20260506221800 7 324 0.0 0.0 0.00 1.55 1.55 98 1010.7
20260506221258 7 313 0.0 0.0 0.00 1.55 1.55 98 1010.9
20260506220755 7 335 0.0 0.0 0.00 1.55 1.55 98 1010.6
20260506220249 7 320 0.0 0.0 0.00 1.55 1.55 98 1010.5
20260506215747 7 285 0.0 0.0 0.00 1.55 1.55 98 1010.6
20260506215242 7 341 0.0 0.0 0.00 1.55 1.55 98 1010.3
20260506214739 7 313 0.0 3.2 0.00 1.55 1.55 98 1010.5
20260506214236 7 9 0.0 0.0 0.00 1.55 1.55 98 1010.1
20260506213735 7 316 0.0 0.0 0.00 1.55 1.55 98 1010.1
20260506213231 7 3 0.0 0.0 0.00 1.55 1.55 98 1010.1
20260506212728 7 332 0.0 1.6 0.00 1.55 1.55 98 1010.1
20260506212224 7 315 0.0 0.0 0.00 1.55 1.55 98 1010.2
20260506211719 7 311 0.0 0.0 0.00 1.55 1.55 98 1010.3
20260506211216 7 351 0.0 0.0 0.00 1.55 1.55 98 1010.2
20260506210713 7 330 0.0 0.0 0.00 1.55 1.55 98 1010.2
20260506210210 7 316 1.6 3.2 0.00 1.55 1.55 98 1010.3
20260506205707 7 341 0.0 0.0 0.00 1.55 1.55 98 1009.9
20260506205202 7 354 0.0 0.0 0.00 1.55 1.55 98 1009.8
20260506204659 7 313 0.0 0.0 0.00 1.55 1.55 98 1009.6
20260506204156 7 308 1.6 3.2 0.00 1.55 1.55 98 1009.7
20260506203654 7 319 0.0 0.0 0.00 1.55 1.55 98 1009.6
20260506203151 7 1 0.0 0.0 0.18 1.55 1.55 98 1009.5
20260506202649 7 317 0.0 0.0 0.18 1.55 1.55 98 1009.5
20260506202145 7 267 0.0 0.0 0.00 1.52 1.52 98 1009.4
20260506201642 7 342 0.0 0.0 0.00 1.52 1.52 98 1009.4
20260506201138 7 322 0.0 0.0 0.00 1.52 1.52 98 1009.1
20260506200635 7 35 0.0 0.0 0.00 1.52 1.52 98 1009.2
20260506200132 7 342 0.0 0.0 0.00 1.52 1.52 98 1009.4
20260506195629 7 293 0.0 1.6 0.00 1.52 1.52 98 1009.5
20260506195125 7 289 1.6 3.2 0.00 1.52 1.52 98 1009.7
20260506194623 7 354 0.0 0.0 0.00 1.52 1.52 98 1009.6
20260506194119 7 331 0.0 0.0 0.00 1.52 1.52 98 1009.6
20260506193617 7 294 0.0 0.0 0.00 1.52 1.52 98 1009.5
20260506193114 7 307 0.0 0.0 0.00 1.52 1.52 98 1009.4
20260506192611 7 325 0.0 0.0 0.00 1.52 1.52 98 1009.4
20260506192106 7 322 0.0 0.0 0.00 1.52 1.52 98 1009.1
20260506191603 7 42 0.0 0.0 0.00 1.52 1.52 98 1009.1
20260506191059 7 324 0.0 0.0 0.00 1.52 1.52 98 1009.2
20260506190557 7 346 0.0 0.0 0.00 1.52 1.52 98 1009.1
20260506190053 7 316 0.0 0.0 0.00 1.52 1.52 98 1009.0
20260506185551 7 348 0.0 0.0 0.00 1.52 1.52 98 1009.1
20260506185047 7 327 0.0 0.0 0.00 1.52 1.52 98 1009.0
20260506184544 7 301 0.0 0.0 0.00 1.52 1.52 98 1008.8
20260506184042 7 339 0.0 0.0 0.00 1.52 1.52 98 1009.2
20260506183537 7 355 0.0 0.0 0.00 1.52 1.52 98 1009.1
20260506183034 7 288 0.0 0.0 0.00 1.52 1.52 98 1009.0
20260506182532 7 350 0.0 0.0 0.00 1.52 1.52 98 1008.7
20260506182029 7 345 0.0 0.0 0.00 1.52 1.52 98 1008.8
20260506181527 7 321 0.0 0.0 0.00 1.52 1.52 98 1008.6
20260506181023 7 268 1.6 4.8 0.00 1.52 1.52 98 1008.6
20260506180520 8 334 0.0 0.0 0.00 1.52 1.52 98 1008.2
20260506180016 7 302 0.0 0.0 0.00 1.52 1.52 98 1008.4
20260506175513 8 338 0.0 0.0 0.00 1.52 1.52 98 1008.3
20260506175009 8 288 0.0 0.0 0.13 1.52 1.52 98 1008.4
20260506174508 8 307 0.0 0.0 0.13 1.52 1.52 98 1008.6
20260506174004 8 322 0.0 0.0 0.00 1.50 1.50 98 1008.3
20260506173502 8 323 0.0 0.0 0.00 1.50 1.50 98 1008.5
20260506172958 8 333 0.0 0.0 0.00 1.50 1.50 98 1008.3
20260506172456 8 318 0.0 0.0 0.00 1.50 1.50 98 1008.0
20260506171952 8 308 0.0 0.0 0.00 1.50 1.50 98 1008.2
20260506171449 8 5 0.0 0.0 0.00 1.50 1.50 98 1008.3
20260506170941 8 332 0.0 0.0 0.00 1.50 1.50 98 1008.2
20260506170438 8 315 0.0 0.0 0.00 1.50 1.50 98 1008.1
20260506165936 8 316 0.0 0.0 0.00 1.50 1.50 98 1008.1
20260506165434 8 315 0.0 0.0 0.00 1.50 1.50 98 1008.3
20260506164930 8 322 0.0 0.0 0.18 1.50 1.50 98 1008.3
20260506164427 8 315 0.0 0.0 0.18 1.50 1.50 98 1008.3
20260506163925 7 314 0.0 0.0 0.00 1.47 1.47 98 1008.5
20260506163419 8 29 0.0 0.0 0.00 1.47 1.47 98 1008.4
20260506162909 8 339 0.0 0.0 0.00 1.47 1.47 98 1008.2
20260506162407 8 335 0.0 0.0 0.00 1.47 1.47 98 1008.3
20260506161904 7 289 0.0 0.0 0.13 1.47 1.47 98 1008.2
20260506161401 7 312 0.0 0.0 0.13 1.47 1.47 98 1008.5
20260506160859 7 326 0.0 0.0 0.18 1.45 1.45 98 1008.5
20260506160356 7 327 0.0 0.0 0.18 1.45 1.45 98 1008.7
20260506155854 7 270 0.0 0.0 0.00 1.42 1.42 98 1008.4
20260506155350 7 312 0.0 0.0 0.13 1.42 1.42 98 1008.8
20260506153508 7 336 0.0 0.0 0.00 1.40 1.40 98 1008.8
20260506153005 7 316 0.0 0.0 0.00 1.40 1.40 98 1008.9
20260506152502 7 327 0.0 0.0 0.00 1.40 1.40 98 1008.9
20260506152000 7 331 0.0 0.0 0.18 1.40 1.40 98 1008.2
20260506151457 7 326 0.0 0.0 0.18 1.40 1.40 98 1008.5
20260506150955 7 326 0.0 0.0 0.00 1.37 1.37 98 1008.5
20260506150450 7 342 0.0 0.0 0.00 1.37 1.37 98 1008.3
20260506145947 7 337 0.0 0.0 0.00 1.37 1.37 98 1008.1
20260506145443 7 327 0.0 0.0 0.13 1.37 1.37 98 1008.2
20260506144942 7 313 0.0 0.0 0.13 1.37 1.37 98 1008.1
20260506144438 7 313 0.0 0.0 0.00 1.35 1.35 98 1008.3
20260506143937 7 337 0.0 0.0 0.18 1.35 1.35 98 1008.0
20260506143433 7 293 0.0 0.0 0.18 1.35 1.35 98 1008.1
20260506142932 7 291 0.0 0.0 0.00 1.32 1.32 98 1008.0
20260506142429 7 300 0.0 0.0 0.00 1.32 1.32 98 1008.2
20260506141927 7 341 0.0 0.0 0.13 1.32 1.32 98 1008.3
20260506141425 7 326 0.0 0.0 0.13 1.32 1.32 98 1008.5
20260506140923 7 323 0.0 0.0 0.00 1.30 1.30 98 1008.2
20260506140419 7 347 0.0 0.0 0.18 1.30 1.30 98 1008.5
20260506135916 7 347 0.0 0.0 0.18 1.30 1.30 98 1008.3
20260506135414 7 339 0.0 0.0 0.18 1.27 1.27 98 1008.3
20260506134910 7 354 0.0 0.0 0.18 1.27 1.27 98 1008.4
20260506134406 7 293 0.0 0.0 0.13 1.24 1.24 98 1008.4
20260506133903 7 343 0.0 0.0 0.30 1.24 1.24 98 1008.6
20260506133400 7 349 0.0 0.0 0.30 1.22 1.22 98 1008.4
20260506132856 7 349 0.0 0.0 0.30 1.19 1.19 98 1008.7
20260506132353 7 359 0.0 0.0 0.30 1.17 1.17 98 1008.5
20260506131852 7 328 0.0 0.0 0.30 1.14 1.14 98 1008.7
20260506131347 7 335 0.0 0.0 0.30 1.12 1.12 98 1008.3
20260506130845 7 322 0.0 0.0 0.43 1.09 1.09 98 1008.6
20260506130341 7 343 0.0 0.0 0.48 1.07 1.07 98 1008.7
20260506125839 7 322 0.0 0.0 0.48 1.02 1.02 98 1008.6
20260506125337 6 9 0.0 0.0 0.48 0.99 0.99 98 1008.8
20260506124835 6 326 0.0 0.0 0.48 0.94 0.94 98 1008.8
20260506124332 7 20 0.0 0.0 0.43 0.91 0.91 98 1008.3
20260506123829 7 328 0.0 0.0 0.43 0.86 0.86 98 1008.6
20260506123328 7 315 0.0 0.0 0.48 0.84 0.84 98 1008.2
20260506122825 7 2 0.0 0.0 0.18 0.79 0.79 98 1008.5
20260506122322 7 327 0.0 0.0 0.13 0.76 0.76 98 1008.5
20260506121820 7 51 0.0 0.0 0.13 0.76 0.76 98 1008.5
20260506121317 7 341 0.0 0.0 0.18 0.74 0.74 98 1008.2
20260506120814 7 328 0.0 0.0 0.18 0.74 0.74 98 1008.2
20260506120311 7 317 0.0 0.0 0.00 0.71 0.71 98 1008.3
20260506115809 7 322 0.0 0.0 0.13 0.71 0.71 98 1008.4
20260506115307 7 299 0.0 0.0 0.13 0.71 0.71 98 1008.4
20260506114805 7 330 0.0 0.0 0.00 0.69 0.69 98 1008.6
20260506114302 7 299 0.0 0.0 0.00 0.69 0.69 98 1008.5
20260506113801 7 320 0.0 0.0 0.18 0.69 0.69 98 1008.5
20260506113258 7 328 0.0 0.0 0.18 0.69 0.69 98 1008.6
20260506112754 7 321 0.0 0.0 0.30 0.66 0.66 98 1008.8
20260506112251 7 338 0.0 0.0 0.48 0.66 0.66 98 1008.8
20260506111749 7 328 0.0 0.0 0.30 0.64 0.64 98 1008.8
20260506111247 7 320 0.0 0.0 0.30 0.61 0.61 98 1008.9
20260506110743 7 321 0.0 0.0 0.30 0.58 0.58 98 1009.0
20260506110241 7 331 0.0 0.0 0.30 0.56 0.56 98 1008.6
20260506105737 7 334 0.0 0.0 0.30 0.53 0.53 98 1008.9
20260506105235 7 27 0.0 0.0 0.18 0.51 0.51 98 1008.7
20260506104732 7 308 0.0 0.0 0.13 0.48 0.48 98 1008.6
20260506104229 7 347 0.0 0.0 0.30 0.48 0.48 98 1008.6
20260506103726 7 325 0.0 0.0 0.18 0.46 0.46 98 1008.8
20260506103224 7 316 0.0 0.0 0.00 0.43 0.43 98 1009.0
20260506102722 7 345 0.0 0.0 0.13 0.43 0.43 98 1008.5
20260506102220 7 355 0.0 0.0 0.30 0.43 0.43 98 1008.4
20260506101716 7 331 0.0 0.0 0.30 0.41 0.41 98 1008.5
20260506101212 7 9 0.0 0.0 0.13 0.38 0.38 98 1008.5
20260506100711 7 334 0.0 0.0 0.18 0.36 0.36 98 1008.5
20260506100209 7 338 0.0 0.0 0.18 0.36 0.36 98 1008.4
20260506095707 7 11 0.0 0.0 0.00 0.33 0.33 98 1008.4
20260506095203 7 79 0.0 0.0 0.00 0.33 0.33 98 1008.4
20260506094700 7 6 0.0 0.0 0.18 0.33 0.33 98 1008.6
20260506094158 7 1 0.0 0.0 0.30 0.33 0.33 98 1009.0
20260506093657 7 13 0.0 0.0 0.30 0.30 0.30 98 1009.1
20260506093153 7 8 0.0 0.0 0.30 0.28 0.28 98 1009.2
20260506092651 7 313 0.0 0.0 0.13 0.25 0.25 98 1009.1
20260506092148 7 311 0.0 0.0 0.18 0.23 0.23 98 1009.1
20260506091646 7 307 0.0 0.0 0.18 0.23 0.23 98 1009.2
20260506091143 7 264 0.0 0.0 0.13 0.20 0.20 98 1009.2
20260506090641 7 43 0.0 0.0 0.30 0.20 0.20 98 1009.1
20260506090138 7 313 0.0 0.0 0.18 0.18 0.18 98 1009.2
20260506085634 7 355 0.0 0.0 0.13 0.15 0.15 98 1009.1
20260506085131 7 287 0.0 0.0 0.13 0.15 0.15 98 1009.4
20260506084627 7 18 0.0 0.0 0.13 0.15 0.15 98 1009.1
20260506084124 7 347 0.0 0.0 0.00 0.13 0.13 98 1009.0
20260506083621 7 8 0.0 0.0 0.18 0.13 0.13 98 1008.8
20260506083119 7 331 0.0 0.0 0.18 0.13 0.13 98 1009.4
20260506082615 7 288 0.0 1.6 0.00 0.10 0.10 98 1008.9
20260506082111 7 27 0.0 0.0 0.00 0.10 0.10 98 1009.3
20260506081609 7 345 0.0 0.0 0.30 0.10 0.10 98 1009.1
20260506081107 7 312 0.0 1.6 0.30 0.10 0.10 98 1009.2
20260506080604 7 18 1.6 1.6 0.18 0.08 0.08 98 1008.9
20260506073044 8 303 1.6 3.2 0.00 0.05 0.05 98 1009.0
20260506072541 8 29 0.0 0.0 0.00 0.05 0.05 98 1008.5
20260506072039 8 10 0.0 0.0 0.00 0.05 0.05 98 1008.6
20260506071537 8 10 0.0 0.0 0.13 0.05 0.05 98 1009.0
20260506071034 8 337 0.0 0.0 0.13 0.05 0.05 98 1009.2
20260506070531 8 313 0.0 0.0 0.00 0.03 0.03 98 1009.2
20260506062508 8 335 0.0 0.0 0.00 0.03 0.03 98 1009.5
20260506062005 8 339 0.0 0.0 0.00 0.03 0.03 98 1009.5
20260506061501 8 7 0.0 0.0 0.00 0.03 0.03 98 1009.4
20260506060959 8 14 0.0 0.0 0.00 0.03 0.03 98 1009.5
20260506060457 8 350 0.0 0.0 0.00 0.03 0.03 98 1009.4
20260506050926 9 322 0.0 0.0 0.00 0.00 0.00 98 1010.5
20260506050424 9 19 0.0 0.0 0.00 0.00 0.00 97 1010.5
20260506044914 9 343 0.0 0.0 0.00 0.00 0.00 97 1010.3
20260506044412 9 357 0.0 0.0 0.00 0.00 0.00 97 1010.3
20260506043909 9 339 0.0 0.0 0.00 0.00 0.00 97 1010.4
20260506043406 9 320 0.0 0.0 0.00 0.00 0.00 97 1010.7
20260506042904 9 354 0.0 0.0 0.00 0.00 0.00 97 1010.2
20260506042403 9 310 0.0 0.0 0.00 0.00 0.00 97 1010.3
20260506041900 9 339 0.0 0.0 0.00 0.00 0.00 97 1010.5
20260506041358 9 333 0.0 0.0 0.00 0.00 0.00 97 1010.2
20260506040855 8 273 0.0 0.0 0.00 0.00 0.00 97 1010.3
20260506040353 8 338 0.0 0.0 0.18 0.00 0.00 97 1010.1
20260506035848 8 327 0.0 0.0 0.30 1.27 1.27 97 1010.3
20260506035346 9 7 0.0 0.0 0.43 1.24 1.24 97 1010.4
20260506034843 9 7 0.0 0.0 0.48 1.22 1.22 97 1011.2
20260506034340 9 297 0.0 0.0 0.30 1.17 1.17 97 1010.8
20260506033837 9 136 0.0 0.0 0.43 1.14 1.14 97 1010.7
20260506033334 9 354 0.0 0.0 0.30 1.12 1.12 96 1010.3
20260506032831 9 333 0.0 0.0 0.00 1.07 1.07 96 1010.9
20260506032327 9 318 0.0 0.0 0.18 1.07 1.07 96 1010.6
20260506031825 9 315 0.0 0.0 0.18 1.07 1.07 96 1010.6
20260506031322 9 2 0.0 0.0 0.13 1.04 1.04 96 1010.4
20260506030819 9 340 0.0 0.0 0.30 1.04 1.04 96 1010.5
20260506030317 9 7 0.0 0.0 0.18 1.02 1.02 96 1010.7
20260506025814 9 314 0.0 0.0 0.18 1.02 1.02 96 1011.2
20260506025310 9 320 0.0 0.0 0.18 0.99 0.99 96 1010.9
20260506024808 9 328 0.0 0.0 0.18 0.99 0.99 96 1010.5
20260506024304 9 327 0.0 0.0 0.13 0.97 0.97 96 1011.1
20260506023800 9 314 0.0 0.0 0.30 0.97 0.97 96 1010.9
20260506023257 9 338 0.0 0.0 0.30 0.94 0.94 95 1010.9
20260506022754 9 314 0.0 0.0 0.30 0.91 0.91 95 1010.5
20260506022252 9 337 0.0 0.0 0.30 0.89 0.89 95 1011.1
20260506021750 9 306 0.0 0.0 0.13 0.86 0.86 95 1011.2
20260506021247 9 326 0.0 0.0 0.30 0.86 0.86 95 1011.1
20260506020743 9 322 0.0 0.0 0.30 0.84 0.84 95 1010.7
20260506020241 9 11 0.0 0.0 0.13 0.81 0.81 94 1010.3
20260506015738 9 10 0.0 0.0 0.18 0.79 0.79 94 1010.3
20260506015236 9 280 0.0 0.0 0.18 0.79 0.79 94 1010.3
20260506014732 9 357 0.0 0.0 0.13 0.76 0.76 94 1010.2
20260506014229 9 320 0.0 0.0 0.30 0.76 0.76 93 1010.5
20260506013726 9 348 0.0 0.0 0.43 0.76 0.76 93 1010.6
20260506013223 10 320 0.0 0.0 0.13 0.71 0.71 93 1010.7
20260506012719 9 324 0.0 0.0 0.18 0.69 0.69 92 1010.8
20260506012217 10 325 0.0 0.0 0.36 0.69 0.69 92 1010.8
20260506011714 10 200 0.0 0.0 0.18 0.66 0.66 92 1010.7